Location: Arbon
(43.0005°N, 0.7472°E)
Time: 23:29:15
(UTC+00:00)

S-56A Canister/Altair - Pass Details

Date: 09 December 2020
Orbit: 633 x 2499 km, 38.9° (Epoch: 19 January)

Event Time Altitude Azimuth Distance (km) Brightness Sun altitude
Rises 17:48:23 0° 257° (WSW) 6,161 14.0 -15.2°
Reaches altitude 10° 17:52:34 10° 256° (WSW) 5,083 13.1 -15.9°
Maximum altitude 18:06:53 73° 176° (S) 2,102 9.7 -18.4°
Enters shadow 18:14:11 24° 98° (E) 2,983 10.0 -19.7°
